Regional Weather Roundup
Issued by NWS Portland, ME

Current Version | Previous Version | Text Only | Print | Product List | Glossary Off
Versions: 1 2 3 4 5 6 7 8 9 10 11 12 13 14 15 16 17 18 19 20 21 22 23 24 25 26 27 28 29 30 31 32 33 34 35 36 37 38 39 40 41 42 43 44 45 46 47 48 49 50
000 ASUS41 KGYX 210110 RWRGYX WEATHER ROUNDUP FOR MAINE AND NEW HAMPSHIRE NATIONAL WEATHER SERVICE GRAY ME 900 PM EDT FRI APR 20 2018 MEZ002-005-006-010-012-015-018-020-021-024-026-027-029-210200- MAINE CITY SKY/WX TMP DP RH WIND PRES REMARKS PORTLAND FAIR 42 29 59 W12 30.17R SANFORD FAIR 39 28 64 W10 30.20R BAR HARBOR CLOUDY 41 35 79 W3 30.08R WISCASSET CLOUDY 44 31 60 VRB7 30.15R ROCKLAND FAIR 42 33 70 W9 30.11R FRYEBURG MOCLDY 39 30 70 W9 30.18R LEWISTONAUBURN CLOUDY 42 30 62 W10 30.16R AUGUSTA CLOUDY 42 32 67 NW9 30.13R WATERVILLE MOCLDY 40 34 79 W9 30.10R BANGOR CLOUDY 44 31 60 NW5 30.08R GREENVILLE N/A 36 31 82 NW12 30.05R MILLINOCKET CLOUDY 37 34 89 W3 30.07R HOULTON CLOUDY 40 28 62 N6 30.02R PRESQUE ISLE MOCLDY 38 27 64 N14 30.05R FRENCHVILLE CLOUDY 37 26 64 N13 30.03R CARIBOU CLOUDY 37 27 67 N10G22 30.03R $$ NHZ002-005-008-009-011-012-014-210200- NEW HAMPSHIRE CITY SKY/WX TMP DP RH WIND PRES REMARKS PORTSMOUTH PTCLDY 41 26 56 W15 30.20R ROCHESTER FAIR 40 28 62 NW14 30.19R NASHUA FAIR 41 27 57 NW13G20 30.25R MANCHESTER FAIR 43 26 51 NW9 30.23R CONCORD FAIR 39 27 62 W10 30.24R LACONIA FAIR 38 27 64 W9G16 30.22R PLYMOUTH FAIR 38 28 66 W9 30.23R BERLIN CLOUDY 37 30 75 NW7 30.17R WHITEFIELD CLOUDY 36 29 75 W6 30.20R JAFFREY FAIR 38 27 64 NW6 30.23R KEENE MOCLDY 39 26 59 VRB5 30.27R LEBANON CLOUDY 40 25 55 W10 30.25R MT WASHINGTON SNOWSHWR 14 14 100 N55G63 N/A VSB 0 WCI -12 $$ VTZ005-007-008-210200- VERMONT CITY SKY/WX TMP DP RH WIND PRES REMARKS ST JOHNSBURY N/A 38 29 70 MISG 30.21R MONTPELIER CLOUDY 36 28 73 W3 30.27R BURLINGTON CLOUDY 43 26 51 W9 30.26R $$ MAZ007-012-024-CTZ003-RIZ002-NYZ038-NYZ072-210200- SOUTHERN NEW ENGLAND AND NY CITY SKY/WX TMP DP RH WIND PRES REMARKS BOSTON FAIR 44 27 51 NW15G24 30.23R WORCESTER CLOUDY 40 23 50 NW21G31 30.23R NANTUCKET CLOUDY 46 34 62 N15 30.19R PROVIDENCE CLOUDY 47 26 44 N14 30.23R HARTFORD CLOUDY 42 25 50 NW14 30.29R ALBANY FAIR 37 24 59 W9 30.35R NEW YORK CITY FAIR 44 24 45 NW16 30.33R $$ ANZ081-ANZ082-ANZ150-NHZ014-MEZ023>029-210200- COASTAL MARINE OBSERVATIONS STATION/POSITION TIME TEMP WIND PRES WAVE AIR SEA DIR/SP/G HT/PER (UTC) (F) (DEG/KT/KT) (MB) (FT/S) MOUNT DESERT ROC 0000 41 290/ 5/ 6 1017.8R MATINICUS ROCK 0000 43 290/ 19/ 20 1017.7R ISLE OF SHOALS 0000 42 300/ 26/ 28 1021.0R JEFFREYS LEDGE 0036 41 N/A 4/ 5 CASHES LEDGE BUO 0050 42 41 1019.6R 4/ 5 $$ .............KEY.............. WCI - WIND CHILL TC - TEMPERATURE IN CELSIUS VSB - VISIBILITY IN MILES HX - HEAT INDEX FAIR- INDICATES FEW OR NO CLOUDS BELOW 12,000 FT, WITH NO SIGNIFICANT WEATHER AND/OR OBSTRUCTIONS TO VISIBILITY.

USA.gov is the U.S. government's official web portal to all federal, state and local government web resources and services.